Change the Weather History Date:

Thursday, August 22, 2013

  Actual Average Record
Temperature  
Mean Temperature 53 °F -  
Max Temperature 55 °F 61 °F 76 °F (1979)
Min Temperature 51 °F 43 °F 34 °F (1954)
Degree Days  
Heating Degree Days 12    
Growing Degree Days 3 (Base 50)    
Moisture  
Dew Point 51 °F    
Average Humidity 92    
Maximum Humidity 94    
Minimum Humidity 88    
Precipitation  
Precipitation 0.02 in - - ()
Sea Level Pressure  
Sea Level Pressure 29.72 in    
Wind  
Wind Speed 4 mph (SSE)    
Max Wind Speed 8 mph    
Max Gust Speed -    
Visibility 4 miles    
Events      
Averages and records for this station are not official NWS values.
T = Trace of Precipitation, MM = Missing Value Source: NWS Daily Summary

Daily Weather History Graph

Daily Weather History Graph

Search for Another Location

Airport or City:

Trip Planner

Search our weather history database for the weather conditions in past years. The results will help you decide how hot, cold, wet, or windy it might be!

Date:

Astronomy

Aug. 22, 2013 Rise Set
Actual Time 6:34 AM AKDT 9:37 PM AKDT
Civil Twilight 5:45 AM AKDT 10:26 PM AKDT
Nautical Twilight 4:36 AM AKDT 11:33 PM AKDT
Astronomical Twilight 2:39 AM AKDT 1:39 AM AKDT
Moon 9:31 PM AKDT (8/22) 9:23 AM AKDT (8/22)
Length of Visible Light 16h 40m
Length of Day
15h 02m
Waning Gibbous, 96% of the Moon is Illuminated
Aug 22
Waning Gibbous
Aug 28
Last Quarter
Sep 5
New
Sep 12
First Quarter
Sep 19
Full

Hourly Weather History & Observations

Time (AKDT) Temp. Dew Point Humidity Pressure Visibility Wind Dir Wind Speed Gust Speed Precip Events Conditions
12:16 AM 51.8 °F 50.0 °F 94% 29.74 in 4.0 mi East 4.6 mph - N/A   Clear
12:36 AM 51.8 °F 50.0 °F 94% 29.74 in 4.0 mi East 5.8 mph - N/A   Partly Cloudy
12:56 AM 51.8 °F 50.0 °F 94% 29.74 in 4.0 mi East 5.8 mph - N/A   Partly Cloudy
1:16 AM 51.8 °F 50.0 °F 94% 29.74 in 5.0 mi East 4.6 mph - N/A   Mostly Cloudy
1:36 AM 51.8 °F 50.0 °F 94% 29.74 in 5.0 mi East 3.5 mph - N/A   Overcast
1:56 AM 51.8 °F 50.0 °F 94% 29.74 in 3.0 mi East 3.5 mph - N/A   Mostly Cloudy
2:16 AM 51.8 °F 50.0 °F 94% 29.73 in 3.0 mi East 3.5 mph - N/A   Mostly Cloudy
2:36 AM 51.8 °F 50.0 °F 94% 29.73 in 3.0 mi East 4.6 mph - N/A   Mostly Cloudy
2:56 AM 51.8 °F 50.0 °F 94% 29.73 in 6.0 mi ESE 4.6 mph - N/A   Overcast
3:16 AM 51.8 °F 50.0 °F 94% 29.73 in 7.0 mi ESE 4.6 mph - N/A   Overcast
3:36 AM 51.8 °F 50.0 °F 94% 29.73 in 3.0 mi East 4.6 mph - N/A   Mostly Cloudy
3:56 AM 51.8 °F 50.0 °F 94% 29.73 in 3.0 mi East 5.8 mph - N/A   Overcast
4:16 AM 51.8 °F 50.0 °F 94% 29.73 in 3.0 mi East 4.6 mph - N/A   Overcast
4:36 AM 51.8 °F 50.0 °F 94% 29.73 in 3.0 mi East 4.6 mph - N/A   Mostly Cloudy
4:56 AM 51.8 °F 50.0 °F 94% 29.73 in 4.0 mi ESE 4.6 mph - N/A   Mostly Cloudy
5:16 AM 51.8 °F 50.0 °F 94% 29.72 in 5.0 mi ESE 4.6 mph - N/A   Overcast
5:36 AM 51.8 °F 50.0 °F 94% 29.72 in 5.0 mi East 3.5 mph - N/A   Mostly Cloudy
5:56 AM 51.8 °F 50.0 °F 94% 29.72 in 7.0 mi East 3.5 mph - N/A   Overcast
6:16 AM 51.8 °F 50.0 °F 94% 29.72 in 9.0 mi ESE 4.6 mph - N/A   Mostly Cloudy
6:36 AM 51.8 °F 50.0 °F 94% 29.72 in 9.0 mi ESE 4.6 mph - N/A   Overcast
6:56 AM 51.8 °F 50.0 °F 94% 29.72 in 7.0 mi East 4.6 mph - N/A   Overcast
7:16 AM 51.8 °F 48.2 °F 88% 29.72 in 5.0 mi Calm Calm - N/A   Overcast
7:36 AM 51.8 °F 50.0 °F 94% 29.72 in 3.0 mi ESE 3.5 mph - N/A   Overcast
7:56 AM 51.8 °F 50.0 °F 94% 29.72 in 3.0 mi East 3.5 mph - N/A   Overcast
8:16 AM 53.6 °F 50.0 °F 88% 29.72 in 1.5 mi ESE 3.5 mph - N/A   Overcast
8:36 AM 53.6 °F 51.8 °F 94% 29.72 in 3.0 mi ESE 3.5 mph - N/A   Overcast
8:56 AM 53.6 °F 51.8 °F 94% 29.72 in 1.5 mi Calm Calm - N/A   Overcast
9:16 AM 53.6 °F 51.8 °F 94% 29.72 in 1.8 mi SE 3.5 mph - N/A   Overcast
9:36 AM 53.6 °F 51.8 °F 94% 29.72 in 5.0 mi ESE 3.5 mph - N/A   Overcast
9:56 AM 53.6 °F 51.8 °F 94% 29.72 in 1.8 mi Calm Calm - N/A   Overcast
10:16 AM 53.6 °F 51.8 °F 94% 29.72 in 1.0 mi South 4.6 mph - N/A   Overcast
10:36 AM 53.6 °F 51.8 °F 94% 29.73 in 1.5 mi WNW 5.8 mph - N/A   Overcast
10:56 AM 53.6 °F 51.8 °F 94% 29.73 in 1.0 mi Calm Calm - N/A   Overcast
11:16 AM 53.6 °F 51.8 °F 94% 29.73 in 1.5 mi SSW 3.5 mph - N/A   Overcast
11:36 AM 55.4 °F 51.8 °F 88% 29.73 in 2.5 mi WSW 4.6 mph - N/A   Overcast
11:56 AM 53.6 °F 51.8 °F 94% 29.73 in 1.5 mi West 5.8 mph - N/A   Overcast
12:16 PM 53.6 °F 51.8 °F 94% 29.73 in 2.5 mi West 6.9 mph - N/A   Overcast
12:36 PM 53.6 °F 51.8 °F 94% 29.73 in 1.8 mi WNW 4.6 mph - N/A   Overcast
12:56 PM 53.6 °F 51.8 °F 94% 29.73 in 1.5 mi West 5.8 mph - N/A   Overcast
1:16 PM 53.6 °F 51.8 °F 94% 29.73 in 1.2 mi West 3.5 mph - N/A   Overcast
1:36 PM 53.6 °F 51.8 °F 94% 29.73 in 2.5 mi West 3.5 mph - N/A   Overcast
1:56 PM 55.4 °F 51.8 °F 88% 29.73 in 2.5 mi NW 4.6 mph - N/A   Overcast
2:16 PM 53.6 °F 51.8 °F 94% 29.73 in 2.0 mi Calm Calm - N/A   Overcast
2:36 PM 55.4 °F 51.8 °F 88% 29.73 in 2.5 mi West 5.8 mph - N/A   Mostly Cloudy
2:56 PM 55.4 °F 51.8 °F 88% 29.73 in 3.0 mi West 4.6 mph - N/A   Overcast
3:16 PM 55.4 °F 51.8 °F 88% 29.72 in 5.0 mi WSW 4.6 mph - N/A   Overcast
3:36 PM 55.4 °F 51.8 °F 88% 29.72 in 2.0 mi WSW 5.8 mph - N/A   Overcast
3:56 PM 55.4 °F 51.8 °F 88% 29.72 in 2.5 mi WSW 3.5 mph - N/A   Overcast
4:16 PM 55.4 °F 51.8 °F 88% 29.72 in 1.5 mi West 6.9 mph - N/A   Overcast
4:36 PM 53.6 °F 51.8 °F 94% 29.72 in 2.0 mi West 5.8 mph - 0.01 in   Overcast
4:56 PM 55.4 °F 51.8 °F 88% 29.72 in 1.5 mi SW 8.1 mph - 0.01 in   Overcast
5:16 PM 55.4 °F 51.8 °F 88% 29.71 in 3.0 mi SW 5.8 mph - 0.01 in   Mostly Cloudy
5:36 PM 55.4 °F 51.8 °F 88% 29.71 in 1.8 mi SSW 3.5 mph - 0.01 in   Overcast
5:56 PM 55.4 °F 51.8 °F 88% 29.71 in 2.0 mi SW 4.6 mph - 0.01 in   Overcast
6:16 PM 55.4 °F 51.8 °F 88% 29.70 in 8.0 mi SW 4.6 mph - N/A   Overcast
6:36 PM 55.4 °F 51.8 °F 88% 29.70 in 5.0 mi SW 4.6 mph - N/A   Overcast
6:56 PM 55.4 °F 51.8 °F 88% 29.70 in 6.0 mi WSW 5.8 mph - N/A   Overcast
7:16 PM 55.4 °F 51.8 °F 88% 29.70 in 10.0 mi SSW 5.8 mph - N/A   Overcast
7:36 PM 55.4 °F 51.8 °F 88% 29.70 in 5.0 mi South 6.9 mph - N/A   Overcast
7:56 PM 55.4 °F 51.8 °F 88% 29.70 in 1.8 mi SSW 3.5 mph - N/A   Overcast
8:16 PM 55.4 °F 51.8 °F 88% 29.69 in 9.0 mi South 5.8 mph - N/A   Overcast
8:36 PM 55.4 °F 51.8 °F 88% 29.69 in 10.0 mi South 4.6 mph - N/A   Overcast
8:56 PM 55.4 °F 51.8 °F 88% 29.69 in 10.0 mi Calm Calm - N/A   Overcast
9:16 PM 55.4 °F 51.8 °F 88% 29.69 in 10.0 mi SE 3.5 mph - N/A   Overcast
9:36 PM 55.4 °F 51.8 °F 88% 29.69 in 10.0 mi East 3.5 mph - N/A   Overcast
9:56 PM 55.4 °F 51.8 °F 88% 29.69 in 10.0 mi Calm Calm - N/A   Overcast
10:16 PM 55.4 °F 51.8 °F 88% 29.69 in 10.0 mi Calm Calm - N/A   Overcast
10:36 PM 55.4 °F 51.8 °F 88% 29.69 in 8.0 mi SSE 4.6 mph - N/A   Overcast
10:56 PM 53.6 °F 51.8 °F 94% 29.68 in 5.0 mi South 3.5 mph - N/A   Overcast
11:16 PM 53.6 °F 51.8 °F 94% 29.68 in 10.0 mi SSE 3.5 mph - N/A   Overcast
11:36 PM 53.6 °F 51.8 °F 94% 29.68 in 10.0 mi SSE 3.5 mph - N/A   Overcast
11:56 PM 53.6 °F 51.8 °F 94% 29.67 in 10.0 mi SSE 3.5 mph - N/A   Overcast